Weather in Kamorino

Russia / Ryazan Oblast     54°16′46″N   38°44′39″E
temp.,
°C
wind,
m/s
gust,
m/s
humid.,
%
clouds,
%
prec.,
mm/h
press.,
hPa
HPBL,
m
25 february, thu
thu2500:00−14ssw5994100 0.3 1030299
03:00−12ssw51094100 0.7 1027309
06:00−9sw61095100 0.8 1023324
09:00−2wsw81494100 1.9 1020666
12:00+1wsw714100100 0.6 1016467
15:00+2wnw614100100 0.8 1015390
18:00+2wnw61399100 0.0 1015373
21:00+2w4799100 0.1 1016146
26 february, fri
fri2600:00+2wnw51299100 0.1 1016328
03:00+2w61299100 0.7 1016348
06:00+2w61399100 0.1 1013324
09:00+2w71499100 0.2 1012417
12:00+3wsw715100100 0.0 1010412
15:00+2w615100100 0.0 1008410
18:00+3w81799100 0.1 1006564
21:00+2w71692100 0.2 1006683
27 february, sat
sat2700:00+1w7159289 0.1 1005673
03:000w7149685 0.1 1005633
06:00+1wnw71294100 0.1 1004634
09:000wnw61196100 0.1 1004658
12:00+1wnw6129999 0.1 1003675
15:00+1nw71297100 0.1 1005703
18:000nnw61197100 0.3 1006633
21:00−3nnw4119498 0.4 1009416
28 february, sun
sun2800:00−5nnw589492 0.1 1010461
03:00−7nnw499495 0.1 1013313
06:00−8nnw4109445 0.0 1014349
09:00−7nnw489564 0.1 1016433
12:00−4nnw599298 0.0 1017607
15:00−3nnw698899 0.1 1018871
18:00−3nnw4995100 0.1 1019433
21:00−4n6119196 0.3 1022513
1 march, mon
mon100:00−5nnw379592 0.1 1024260
03:00−6nnw379696 0.2 1025241
06:00−7nnw3795100 0.1 1026201
09:00−8nw369363 0.1 1028159
12:00−4nw46865 0.0 1028604
15:00−3w368918 0.0 1028514
18:00−5wsw499296 0.0 1027195
21:00−4w5129498 0.0 1026307